TimeEDT,TemperatureF,Dew PointF,Humidity,Sea Level PressureIn,VisibilityMPH,Wind Direction,Wind SpeedMPH,Gust SpeedMPH,PrecipitationIn,Events,Conditions,WindDirDegrees,DateUTC
12:53 AM,45.0,37.9,76,29.74,10.0,WSW,8.1,-,N/A,,Scattered Clouds,240,2013-04-01 04:53:00
1:53 AM,45.0,37.9,76,29.75,10.0,SW,10.4,-,N/A,,Mostly Cloudy,230,2013-04-01 05:53:00
2:41 AM,44.6,39.2,81,29.72,10.0,SSW,10.4,-,N/A,,Overcast,210,2013-04-01 06:41:00
2:49 AM,44.6,39.2,81,29.72,10.0,SSW,11.5,-,N/A,,Overcast,210,2013-04-01 06:49:00
2:53 AM,44.1,39.0,82,29.74,10.0,SSW,11.5,-,N/A,,Overcast,200,2013-04-01 06:53:00
3:53 AM,44.1,39.0,82,29.73,10.0,SSW,11.5,-,N/A,,Overcast,210,2013-04-01 07:53:00
4:53 AM,45.0,39.0,80,29.71,10.0,SSW,12.7,-,0.00,,Overcast,200,2013-04-01 08:53:00
5:53 AM,45.0,39.0,80,29.71,10.0,SSW,12.7,-,N/A,,Overcast,200,2013-04-01 09:53:00
6:01 AM,44.6,39.2,81,29.69,10.0,SSW,11.5,-,N/A,,Overcast,200,2013-04-01 10:01:00
6:53 AM,44.1,39.0,82,29.72,10.0,SSW,10.4,-,N/A,,Overcast,210,2013-04-01 10:53:00
7:05 AM,44.6,39.2,81,29.70,10.0,WSW,10.4,-,N/A,,Overcast,240,2013-04-01 11:05:00
7:53 AM,46.0,37.0,71,29.73,10.0,WSW,11.5,19.6,N/A,,Overcast,250,2013-04-01 11:53:00
8:53 AM,44.1,37.0,76,29.75,6.0,NW,16.1,26.5,0.00,Rain,Light Rain,310,2013-04-01 12:53:00
8:59 AM,41.0,35.6,81,29.73,2.5,WNW,17.3,32.2,0.02,Rain,Heavy Rain,300,2013-04-01 12:59:00
9:16 AM,42.8,37.4,81,29.73,8.0,West,13.8,-,0.04,Rain,Light Rain,280,2013-04-01 13:16:00
9:23 AM,42.8,35.6,76,29.73,10.0,West,19.6,24.2,0.04,,Overcast,280,2013-04-01 13:23:00
9:53 AM,45.0,33.1,63,29.77,10.0,West,23.0,29.9,0.05,,Overcast,280,2013-04-01 13:53:00
10:53 AM,43.0,30.0,60,29.79,10.0,West,24.2,34.5,N/A,,Overcast,280,2013-04-01 14:53:00
11:46 AM,39.2,30.2,70,29.80,10.0,WNW,12.7,-,0.00,,Overcast,300,2013-04-01 15:46:00
11:53 AM,41.0,32.0,70,29.83,10.0,West,16.1,-,0.00,,Overcast,270,2013-04-01 15:53:00
12:05 PM,39.2,32.0,75,29.81,10.0,WNW,15.0,-,0.00,,Overcast,300,2013-04-01 16:05:00
12:16 PM,39.2,30.2,70,29.81,10.0,West,16.1,21.9,0.00,,Overcast,280,2013-04-01 16:16:00
12:53 PM,41.0,28.9,62,29.83,10.0,West,18.4,25.3,0.00,,Mostly Cloudy,280,2013-04-01 16:53:00
1:30 PM,35.6,30.2,81,29.83,5.0,NW,17.3,25.3,0.00,Snow,Light Snow,320,2013-04-01 17:30:00
1:53 PM,37.9,28.9,70,29.86,10.0,WNW,17.3,26.5,0.00,,Overcast,300,2013-04-01 17:53:00
2:20 PM,37.4,26.6,65,29.84,9.0,WNW,17.3,24.2,0.00,,Overcast,290,2013-04-01 18:20:00
2:32 PM,39.2,26.6,61,29.84,10.0,West,19.6,28.8,0.00,,Mostly Cloudy,280,2013-04-01 18:32:00
2:53 PM,39.9,26.1,58,29.86,10.0,WNW,18.4,32.2,0.00,,Mostly Cloudy,300,2013-04-01 18:53:00
3:53 PM,39.9,21.9,49,29.86,10.0,NW,21.9,29.9,N/A,,Mostly Cloudy,310,2013-04-01 19:53:00
4:53 PM,39.9,19.0,43,29.87,10.0,NW,18.4,28.8,N/A,,Scattered Clouds,310,2013-04-01 20:53:00
5:53 PM,39.9,14.0,35,29.88,10.0,WNW,21.9,31.1,N/A,,Partly Cloudy,300,2013-04-01 21:53:00
6:53 PM,37.9,12.0,35,29.90,10.0,NW,19.6,28.8,N/A,,Clear,310,2013-04-01 22:53:00
7:53 PM,36.0,12.0,37,29.92,10.0,WNW,15.0,24.2,N/A,,Clear,300,2013-04-01 23:53:00
8:53 PM,34.0,12.9,42,29.95,10.0,NW,12.7,-,N/A,,Clear,310,2013-04-02 00:53:00
9:53 PM,32.0,12.9,45,29.97,10.0,NW,10.4,-,N/A,,Clear,310,2013-04-02 01:53:00
10:53 PM,32.0,10.9,42,29.99,10.0,NNW,10.4,-,N/A,,Clear,340,2013-04-02 02:53:00
11:53 PM,30.9,12.0,46,29.99,10.0,NW,9.2,-,N/A,,Scattered Clouds,310,2013-04-02 03:53:00